<?xml version="1.0" encoding="UTF-8" standalone="no" ?>
<gpx xmlns="http://www.topografix.com/GPX/1/1" xmlns:xsi="http://www.w3.org/2001/XMLSchema-instance" xsi:schemaLocation="http://www.topografix.com/GPX/1/1 http://www.topografix.com/GPX/1/1/gpx.xsd" version="1.1" creator="VisuGPX - https://www.visugpx.com">
  <metadata>
    <name>Pic Carlit par étang de Lanoux</name>
    <desc><![CDATA[Impressionnante ascension au pied du pic mais sans réelle difficulté. ]]></desc>
  </metadata>
  <trk>
    <name><![CDATA[carlit]]></name>
    <trkseg>
      <trkpt lat="42.55164" lon="1.88012">
        <ele>1735.9</ele>
        <time>2013-09-21T08:24:53Z</time>
      </trkpt>
      <trkpt lat="42.55216" lon="1.87975">
        <ele>1745.4</ele>
        <time>2013-09-21T08:24:53Z</time>
      </trkpt>
      <trkpt lat="42.55233" lon="1.88005">
        <ele>1753.1</ele>
        <time>2013-09-21T08:24:53Z</time>
      </trkpt>
      <trkpt lat="42.55235" lon="1.88058">
        <ele>1762.5</ele>
        <time>2013-09-21T08:24:53Z</time>
      </trkpt>
      <trkpt lat="42.55255" lon="1.88116">
        <ele>1775.9</ele>
        <time>2013-09-21T08:24:53Z</time>
      </trkpt>
      <trkpt lat="42.55266" lon="1.88165">
        <ele>1783.3</ele>
        <time>2013-09-21T08:24:53Z</time>
      </trkpt>
      <trkpt lat="42.55284" lon="1.88178">
        <ele>1789.4</ele>
        <time>2013-09-21T08:24:53Z</time>
      </trkpt>
      <trkpt lat="42.55307" lon="1.88144">
        <ele>1797.5</ele>
        <time>2013-09-21T08:24:53Z</time>
      </trkpt>
      <trkpt lat="42.55331" lon="1.88158">
        <ele>1805.7</ele>
        <time>2013-09-21T08:24:53Z</time>
      </trkpt>
      <trkpt lat="42.55351" lon="1.88163">
        <ele>1812.1</ele>
        <time>2013-09-21T08:24:53Z</time>
      </trkpt>
      <trkpt lat="42.55377" lon="1.88157">
        <ele>1821.1</ele>
        <time>2013-09-21T08:24:53Z</time>
      </trkpt>
      <trkpt lat="42.55417" lon="1.88122">
        <ele>1835.6</ele>
        <time>2013-09-21T08:24:53Z</time>
      </trkpt>
      <trkpt lat="42.55454" lon="1.88143">
        <ele>1840.8</ele>
        <time>2013-09-21T08:24:53Z</time>
      </trkpt>
      <trkpt lat="42.55493" lon="1.88141">
        <ele>1847</ele>
        <time>2013-09-21T08:24:53Z</time>
      </trkpt>
      <trkpt lat="42.5553" lon="1.8814">
        <ele>1853.5</ele>
        <time>2013-09-21T08:24:53Z</time>
      </trkpt>
      <trkpt lat="42.55576" lon="1.88143">
        <ele>1861.8</ele>
        <time>2013-09-21T08:24:53Z</time>
      </trkpt>
      <trkpt lat="42.55596" lon="1.88136">
        <ele>1867.7</ele>
        <time>2013-09-21T08:24:53Z</time>
      </trkpt>
      <trkpt lat="42.55611" lon="1.88087">
        <ele>1870.8</ele>
        <time>2013-09-21T08:24:53Z</time>
      </trkpt>
      <trkpt lat="42.55648" lon="1.88046">
        <ele>1886.3</ele>
        <time>2013-09-21T08:24:53Z</time>
      </trkpt>
      <trkpt lat="42.55685" lon="1.88032">
        <ele>1900</ele>
        <time>2013-09-21T08:24:53Z</time>
      </trkpt>
      <trkpt lat="42.55712" lon="1.8805">
        <ele>1906.7</ele>
        <time>2013-09-21T08:24:53Z</time>
      </trkpt>
      <trkpt lat="42.55737" lon="1.88077">
        <ele>1911.7</ele>
        <time>2013-09-21T08:24:53Z</time>
      </trkpt>
      <trkpt lat="42.55767" lon="1.88031">
        <ele>1925.3</ele>
        <time>2013-09-21T08:24:53Z</time>
      </trkpt>
      <trkpt lat="42.55799" lon="1.87989">
        <ele>1937.2</ele>
        <time>2013-09-21T08:24:53Z</time>
      </trkpt>
      <trkpt lat="42.55843" lon="1.87985">
        <ele>1951.4</ele>
        <time>2013-09-21T08:24:53Z</time>
      </trkpt>
      <trkpt lat="42.55885" lon="1.87998">
        <ele>1967.9</ele>
        <time>2013-09-21T08:24:53Z</time>
      </trkpt>
      <trkpt lat="42.55924" lon="1.8802">
        <ele>1985.3</ele>
        <time>2013-09-21T08:24:53Z</time>
      </trkpt>
      <trkpt lat="42.55956" lon="1.88024">
        <ele>2004.9</ele>
        <time>2013-09-21T08:24:53Z</time>
      </trkpt>
      <trkpt lat="42.55992" lon="1.88037">
        <ele>2027.8</ele>
        <time>2013-09-21T08:24:53Z</time>
      </trkpt>
      <trkpt lat="42.56029" lon="1.88032">
        <ele>2054.5</ele>
        <time>2013-09-21T08:24:53Z</time>
      </trkpt>
      <trkpt lat="42.56033" lon="1.8809">
        <ele>2056.6</ele>
        <time>2013-09-21T08:24:53Z</time>
      </trkpt>
      <trkpt lat="42.56042" lon="1.88139">
        <ele>2059.8</ele>
        <time>2013-09-21T08:24:53Z</time>
      </trkpt>
      <trkpt lat="42.56053" lon="1.88197">
        <ele>2064.3</ele>
        <time>2013-09-21T08:24:53Z</time>
      </trkpt>
      <trkpt lat="42.56065" lon="1.88251">
        <ele>2069.5</ele>
        <time>2013-09-21T08:24:53Z</time>
      </trkpt>
      <trkpt lat="42.56078" lon="1.8831">
        <ele>2078.8</ele>
        <time>2013-09-21T08:24:53Z</time>
      </trkpt>
      <trkpt lat="42.56091" lon="1.88374">
        <ele>2086.8</ele>
        <time>2013-09-21T08:24:53Z</time>
      </trkpt>
      <trkpt lat="42.56104" lon="1.88437">
        <ele>2095.2</ele>
        <time>2013-09-21T08:24:53Z</time>
      </trkpt>
      <trkpt lat="42.56101" lon="1.88503">
        <ele>2094.1</ele>
        <time>2013-09-21T08:24:53Z</time>
      </trkpt>
      <trkpt lat="42.56121" lon="1.88563">
        <ele>2114.2</ele>
        <time>2013-09-21T08:24:53Z</time>
      </trkpt>
      <trkpt lat="42.56133" lon="1.88622">
        <ele>2122.9</ele>
        <time>2013-09-21T08:24:53Z</time>
      </trkpt>
      <trkpt lat="42.56159" lon="1.88669">
        <ele>2146.8</ele>
        <time>2013-09-21T08:24:53Z</time>
      </trkpt>
      <trkpt lat="42.56165" lon="1.8869">
        <ele>2152.4</ele>
        <time>2013-09-21T08:24:53Z</time>
      </trkpt>
      <trkpt lat="42.56163" lon="1.88752">
        <ele>2148.2</ele>
        <time>2013-09-21T08:24:53Z</time>
      </trkpt>
      <trkpt lat="42.56179" lon="1.88805">
        <ele>2150.7</ele>
        <time>2013-09-21T08:24:53Z</time>
      </trkpt>
      <trkpt lat="42.56189" lon="1.88864">
        <ele>2143.3</ele>
        <time>2013-09-21T08:24:53Z</time>
      </trkpt>
      <trkpt lat="42.56224" lon="1.88903">
        <ele>2155.6</ele>
        <time>2013-09-21T08:24:53Z</time>
      </trkpt>
      <trkpt lat="42.56256" lon="1.88942">
        <ele>2157.3</ele>
        <time>2013-09-21T08:24:53Z</time>
      </trkpt>
      <trkpt lat="42.56293" lon="1.88972">
        <ele>2157.8</ele>
        <time>2013-09-21T08:24:53Z</time>
      </trkpt>
      <trkpt lat="42.56323" lon="1.89021">
        <ele>2149.1</ele>
        <time>2013-09-21T08:24:53Z</time>
      </trkpt>
      <trkpt lat="42.56348" lon="1.89062">
        <ele>2138.8</ele>
        <time>2013-09-21T08:24:53Z</time>
      </trkpt>
      <trkpt lat="42.56384" lon="1.89098">
        <ele>2127.1</ele>
        <time>2013-09-21T08:24:53Z</time>
      </trkpt>
      <trkpt lat="42.56423" lon="1.89086">
        <ele>2136.5</ele>
        <time>2013-09-21T08:24:53Z</time>
      </trkpt>
      <trkpt lat="42.56461" lon="1.89069">
        <ele>2136</ele>
        <time>2013-09-21T08:24:53Z</time>
      </trkpt>
      <trkpt lat="42.56493" lon="1.89028">
        <ele>2154.6</ele>
        <time>2013-09-21T08:24:53Z</time>
      </trkpt>
      <trkpt lat="42.56536" lon="1.89013">
        <ele>2157.4</ele>
        <time>2013-09-21T08:24:53Z</time>
      </trkpt>
      <trkpt lat="42.56576" lon="1.89002">
        <ele>2157.2</ele>
        <time>2013-09-21T08:24:53Z</time>
      </trkpt>
      <trkpt lat="42.56618" lon="1.89022">
        <ele>2143.8</ele>
        <time>2013-09-21T08:24:53Z</time>
      </trkpt>
      <trkpt lat="42.56659" lon="1.89009">
        <ele>2148.8</ele>
        <time>2013-09-21T08:24:53Z</time>
      </trkpt>
      <trkpt lat="42.56696" lon="1.88994">
        <ele>2158.7</ele>
        <time>2013-09-21T08:24:53Z</time>
      </trkpt>
      <trkpt lat="42.56738" lon="1.89027">
        <ele>2143.4</ele>
        <time>2013-09-21T08:24:53Z</time>
      </trkpt>
      <trkpt lat="42.56781" lon="1.89025">
        <ele>2139.8</ele>
        <time>2013-09-21T08:24:53Z</time>
      </trkpt>
      <trkpt lat="42.56815" lon="1.8899">
        <ele>2150.9</ele>
        <time>2013-09-21T08:24:53Z</time>
      </trkpt>
      <trkpt lat="42.56859" lon="1.88975">
        <ele>2155.1</ele>
        <time>2013-09-21T08:24:53Z</time>
      </trkpt>
      <trkpt lat="42.56896" lon="1.89006">
        <ele>2141.4</ele>
        <time>2013-09-21T08:24:53Z</time>
      </trkpt>
      <trkpt lat="42.5692" lon="1.89007">
        <ele>2142</ele>
        <time>2013-09-21T08:24:53Z</time>
      </trkpt>
      <trkpt lat="42.56963" lon="1.89008">
        <ele>2146.3</ele>
        <time>2013-09-21T08:24:53Z</time>
      </trkpt>
      <trkpt lat="42.57006" lon="1.89016">
        <ele>2149.2</ele>
        <time>2013-09-21T08:24:53Z</time>
      </trkpt>
      <trkpt lat="42.57045" lon="1.89036">
        <ele>2152.9</ele>
        <time>2013-09-21T08:24:53Z</time>
      </trkpt>
      <trkpt lat="42.57088" lon="1.89038">
        <ele>2166.6</ele>
        <time>2013-09-21T08:24:53Z</time>
      </trkpt>
      <trkpt lat="42.57127" lon="1.89049">
        <ele>2177.7</ele>
        <time>2013-09-21T08:24:53Z</time>
      </trkpt>
      <trkpt lat="42.5716" lon="1.89083">
        <ele>2168.5</ele>
        <time>2013-09-21T08:24:53Z</time>
      </trkpt>
      <trkpt lat="42.5719" lon="1.89122">
        <ele>2159.8</ele>
        <time>2013-09-21T08:24:53Z</time>
      </trkpt>
      <trkpt lat="42.57209" lon="1.89133">
        <ele>2161.5</ele>
        <time>2013-09-21T08:24:53Z</time>
      </trkpt>
      <trkpt lat="42.57244" lon="1.89161">
        <ele>2159.1</ele>
        <time>2013-09-21T08:24:53Z</time>
      </trkpt>
      <trkpt lat="42.57281" lon="1.89184">
        <ele>2154.7</ele>
        <time>2013-09-21T08:24:53Z</time>
      </trkpt>
      <trkpt lat="42.57327" lon="1.89181">
        <ele>2163.6</ele>
        <time>2013-09-21T08:24:53Z</time>
      </trkpt>
      <trkpt lat="42.57369" lon="1.89192">
        <ele>2172.2</ele>
        <time>2013-09-21T08:24:53Z</time>
      </trkpt>
      <trkpt lat="42.5739" lon="1.89248">
        <ele>2155.6</ele>
        <time>2013-09-21T08:24:53Z</time>
      </trkpt>
      <trkpt lat="42.57422" lon="1.89295">
        <ele>2153.5</ele>
        <time>2013-09-21T08:24:53Z</time>
      </trkpt>
      <trkpt lat="42.57443" lon="1.89353">
        <ele>2144.5</ele>
        <time>2013-09-21T08:24:53Z</time>
      </trkpt>
      <trkpt lat="42.57469" lon="1.8939">
        <ele>2146.8</ele>
        <time>2013-09-21T08:24:53Z</time>
      </trkpt>
      <trkpt lat="42.57505" lon="1.8942">
        <ele>2154.3</ele>
        <time>2013-09-21T08:24:53Z</time>
      </trkpt>
      <trkpt lat="42.57505" lon="1.89425">
        <ele>2153.7</ele>
        <time>2013-09-21T08:24:53Z</time>
      </trkpt>
      <trkpt lat="42.57534" lon="1.89426">
        <ele>2158</ele>
        <time>2013-09-21T08:24:53Z</time>
      </trkpt>
      <trkpt lat="42.5754" lon="1.89457">
        <ele>2157.7</ele>
        <time>2013-09-21T08:24:53Z</time>
      </trkpt>
      <trkpt lat="42.57536" lon="1.89514">
        <ele>2156.3</ele>
        <time>2013-09-21T08:24:53Z</time>
      </trkpt>
      <trkpt lat="42.57521" lon="1.89569">
        <ele>2157.8</ele>
        <time>2013-09-21T08:24:53Z</time>
      </trkpt>
      <trkpt lat="42.57512" lon="1.89627">
        <ele>2158.7</ele>
        <time>2013-09-21T08:24:53Z</time>
      </trkpt>
      <trkpt lat="42.57516" lon="1.89584">
        <ele>2157.9</ele>
        <time>2013-09-21T08:24:53Z</time>
      </trkpt>
      <trkpt lat="42.57532" lon="1.89525">
        <ele>2156.3</ele>
        <time>2013-09-21T08:24:53Z</time>
      </trkpt>
      <trkpt lat="42.57536" lon="1.89463">
        <ele>2156.5</ele>
        <time>2013-09-21T08:24:53Z</time>
      </trkpt>
      <trkpt lat="42.5757" lon="1.89465">
        <ele>2164.2</ele>
        <time>2013-09-21T08:24:53Z</time>
      </trkpt>
      <trkpt lat="42.5761" lon="1.8947">
        <ele>2168</ele>
        <time>2013-09-21T08:24:53Z</time>
      </trkpt>
      <trkpt lat="42.5763" lon="1.89529">
        <ele>2171.3</ele>
        <time>2013-09-21T08:24:53Z</time>
      </trkpt>
      <trkpt lat="42.57637" lon="1.89594">
        <ele>2176</ele>
        <time>2013-09-21T08:24:53Z</time>
      </trkpt>
      <trkpt lat="42.57646" lon="1.89655">
        <ele>2177.7</ele>
        <time>2013-09-21T08:24:53Z</time>
      </trkpt>
      <trkpt lat="42.57656" lon="1.89712">
        <ele>2181.3</ele>
        <time>2013-09-21T08:24:53Z</time>
      </trkpt>
      <trkpt lat="42.5768" lon="1.89766">
        <ele>2187.1</ele>
        <time>2013-09-21T08:24:53Z</time>
      </trkpt>
      <trkpt lat="42.57685" lon="1.89825">
        <ele>2193.8</ele>
        <time>2013-09-21T08:24:53Z</time>
      </trkpt>
      <trkpt lat="42.57712" lon="1.89868">
        <ele>2201.3</ele>
        <time>2013-09-21T08:24:53Z</time>
      </trkpt>
      <trkpt lat="42.5772" lon="1.89923">
        <ele>2206.8</ele>
        <time>2013-09-21T08:24:53Z</time>
      </trkpt>
      <trkpt lat="42.57718" lon="1.8998">
        <ele>2210.7</ele>
        <time>2013-09-21T08:24:53Z</time>
      </trkpt>
      <trkpt lat="42.57739" lon="1.90031">
        <ele>2212.2</ele>
        <time>2013-09-21T08:24:53Z</time>
      </trkpt>
      <trkpt lat="42.57756" lon="1.90087">
        <ele>2210</ele>
        <time>2013-09-21T08:24:53Z</time>
      </trkpt>
      <trkpt lat="42.57766" lon="1.90153">
        <ele>2212.7</ele>
        <time>2013-09-21T08:24:53Z</time>
      </trkpt>
      <trkpt lat="42.57783" lon="1.9021">
        <ele>2218.3</ele>
        <time>2013-09-21T08:24:53Z</time>
      </trkpt>
      <trkpt lat="42.57808" lon="1.90257">
        <ele>2219.4</ele>
        <time>2013-09-21T08:24:53Z</time>
      </trkpt>
      <trkpt lat="42.57808" lon="1.90313">
        <ele>2225.3</ele>
        <time>2013-09-21T08:24:53Z</time>
      </trkpt>
      <trkpt lat="42.57808" lon="1.90375">
        <ele>2232.5</ele>
        <time>2013-09-21T08:24:53Z</time>
      </trkpt>
      <trkpt lat="42.57792" lon="1.90431">
        <ele>2244.1</ele>
        <time>2013-09-21T08:24:53Z</time>
      </trkpt>
      <trkpt lat="42.57803" lon="1.9049">
        <ele>2247.4</ele>
        <time>2013-09-21T08:24:53Z</time>
      </trkpt>
      <trkpt lat="42.57805" lon="1.90551">
        <ele>2254.4</ele>
        <time>2013-09-21T08:24:53Z</time>
      </trkpt>
      <trkpt lat="42.57789" lon="1.90594">
        <ele>2263.4</ele>
        <time>2013-09-21T08:24:53Z</time>
      </trkpt>
      <trkpt lat="42.57754" lon="1.90624">
        <ele>2273.2</ele>
        <time>2013-09-21T08:24:53Z</time>
      </trkpt>
      <trkpt lat="42.57748" lon="1.9064">
        <ele>2275.5</ele>
        <time>2013-09-21T08:24:53Z</time>
      </trkpt>
      <trkpt lat="42.57728" lon="1.90692">
        <ele>2285.7</ele>
        <time>2013-09-21T08:24:53Z</time>
      </trkpt>
      <trkpt lat="42.57725" lon="1.9074">
        <ele>2293.6</ele>
        <time>2013-09-21T08:24:53Z</time>
      </trkpt>
      <trkpt lat="42.57725" lon="1.90795">
        <ele>2301.1</ele>
        <time>2013-09-21T08:24:53Z</time>
      </trkpt>
      <trkpt lat="42.57715" lon="1.90855">
        <ele>2310.8</ele>
        <time>2013-09-21T08:24:53Z</time>
      </trkpt>
      <trkpt lat="42.57684" lon="1.90905">
        <ele>2317.4</ele>
        <time>2013-09-21T08:24:53Z</time>
      </trkpt>
      <trkpt lat="42.57648" lon="1.90947">
        <ele>2326.7</ele>
        <time>2013-09-21T08:24:53Z</time>
      </trkpt>
      <trkpt lat="42.57633" lon="1.9101">
        <ele>2338.7</ele>
        <time>2013-09-21T08:24:53Z</time>
      </trkpt>
      <trkpt lat="42.57623" lon="1.91074">
        <ele>2349.8</ele>
        <time>2013-09-21T08:24:53Z</time>
      </trkpt>
      <trkpt lat="42.57597" lon="1.91128">
        <ele>2354.3</ele>
        <time>2013-09-21T08:24:53Z</time>
      </trkpt>
      <trkpt lat="42.57597" lon="1.91193">
        <ele>2363.4</ele>
        <time>2013-09-21T08:24:53Z</time>
      </trkpt>
      <trkpt lat="42.57585" lon="1.91252">
        <ele>2370.7</ele>
        <time>2013-09-21T08:24:53Z</time>
      </trkpt>
      <trkpt lat="42.57562" lon="1.91286">
        <ele>2376.1</ele>
        <time>2013-09-21T08:24:53Z</time>
      </trkpt>
      <trkpt lat="42.57542" lon="1.91336">
        <ele>2381.9</ele>
        <time>2013-09-21T08:24:53Z</time>
      </trkpt>
      <trkpt lat="42.57534" lon="1.91396">
        <ele>2387.9</ele>
        <time>2013-09-21T08:24:53Z</time>
      </trkpt>
      <trkpt lat="42.57514" lon="1.91451">
        <ele>2392.6</ele>
        <time>2013-09-21T08:24:53Z</time>
      </trkpt>
      <trkpt lat="42.57472" lon="1.91474">
        <ele>2393.9</ele>
        <time>2013-09-21T08:24:53Z</time>
      </trkpt>
      <trkpt lat="42.57443" lon="1.91518">
        <ele>2400.9</ele>
        <time>2013-09-21T08:24:53Z</time>
      </trkpt>
      <trkpt lat="42.57422" lon="1.91564">
        <ele>2412.9</ele>
        <time>2013-09-21T08:24:53Z</time>
      </trkpt>
      <trkpt lat="42.57421" lon="1.91592">
        <ele>2421.1</ele>
        <time>2013-09-21T08:24:53Z</time>
      </trkpt>
      <trkpt lat="42.57417" lon="1.91613">
        <ele>2428.3</ele>
        <time>2013-09-21T08:24:53Z</time>
      </trkpt>
      <trkpt lat="42.57394" lon="1.91651">
        <ele>2442.6</ele>
        <time>2013-09-21T08:24:53Z</time>
      </trkpt>
      <trkpt lat="42.57372" lon="1.91708">
        <ele>2457.9</ele>
        <time>2013-09-21T08:24:53Z</time>
      </trkpt>
      <trkpt lat="42.57343" lon="1.91761">
        <ele>2467.6</ele>
        <time>2013-09-21T08:24:53Z</time>
      </trkpt>
      <trkpt lat="42.5732" lon="1.9181">
        <ele>2470.1</ele>
        <time>2013-09-21T08:24:53Z</time>
      </trkpt>
      <trkpt lat="42.57295" lon="1.91855">
        <ele>2468.2</ele>
        <time>2013-09-21T08:24:53Z</time>
      </trkpt>
      <trkpt lat="42.57267" lon="1.91895">
        <ele>2466.1</ele>
        <time>2013-09-21T08:24:53Z</time>
      </trkpt>
      <trkpt lat="42.57244" lon="1.91947">
        <ele>2467.7</ele>
        <time>2013-09-21T08:24:53Z</time>
      </trkpt>
      <trkpt lat="42.57215" lon="1.92001">
        <ele>2469.9</ele>
        <time>2013-09-21T08:24:53Z</time>
      </trkpt>
      <trkpt lat="42.57214" lon="1.92044">
        <ele>2468.5</ele>
        <time>2013-09-21T08:24:53Z</time>
      </trkpt>
      <trkpt lat="42.57219" lon="1.92069">
        <ele>2467.6</ele>
        <time>2013-09-21T08:24:53Z</time>
      </trkpt>
      <trkpt lat="42.57215" lon="1.92072">
        <ele>2467.6</ele>
        <time>2013-09-21T08:24:53Z</time>
      </trkpt>
      <trkpt lat="42.57236" lon="1.92078">
        <ele>2466.8</ele>
        <time>2013-09-21T08:24:53Z</time>
      </trkpt>
      <trkpt lat="42.57222" lon="1.92071">
        <ele>2467.5</ele>
        <time>2013-09-21T08:24:53Z</time>
      </trkpt>
      <trkpt lat="42.5724" lon="1.92069">
        <ele>2467.2</ele>
        <time>2013-09-21T08:24:53Z</time>
      </trkpt>
      <trkpt lat="42.57219" lon="1.92067">
        <ele>2467.7</ele>
        <time>2013-09-21T08:24:53Z</time>
      </trkpt>
      <trkpt lat="42.57194" lon="1.92108">
        <ele>2468.5</ele>
        <time>2013-09-21T08:24:53Z</time>
      </trkpt>
      <trkpt lat="42.57178" lon="1.92156">
        <ele>2470.7</ele>
        <time>2013-09-21T08:24:53Z</time>
      </trkpt>
      <trkpt lat="42.57161" lon="1.922">
        <ele>2477</ele>
        <time>2013-09-21T08:24:53Z</time>
      </trkpt>
      <trkpt lat="42.57172" lon="1.92236">
        <ele>2481.9</ele>
        <time>2013-09-21T08:24:53Z</time>
      </trkpt>
      <trkpt lat="42.57157" lon="1.9228">
        <ele>2490</ele>
        <time>2013-09-21T08:24:53Z</time>
      </trkpt>
      <trkpt lat="42.57152" lon="1.92304">
        <ele>2494</ele>
        <time>2013-09-21T08:24:53Z</time>
      </trkpt>
      <trkpt lat="42.57151" lon="1.92363">
        <ele>2505.8</ele>
        <time>2013-09-21T08:24:53Z</time>
      </trkpt>
      <trkpt lat="42.57168" lon="1.92416">
        <ele>2519.7</ele>
        <time>2013-09-21T08:24:53Z</time>
      </trkpt>
      <trkpt lat="42.57168" lon="1.92477">
        <ele>2528.6</ele>
        <time>2013-09-21T08:24:53Z</time>
      </trkpt>
      <trkpt lat="42.57174" lon="1.92511">
        <ele>2534.8</ele>
        <time>2013-09-21T08:24:53Z</time>
      </trkpt>
      <trkpt lat="42.57187" lon="1.92574">
        <ele>2554.7</ele>
        <time>2013-09-21T08:24:53Z</time>
      </trkpt>
      <trkpt lat="42.5719" lon="1.92623">
        <ele>2577.5</ele>
        <time>2013-09-21T08:24:53Z</time>
      </trkpt>
      <trkpt lat="42.57189" lon="1.92671">
        <ele>2602</ele>
        <time>2013-09-21T08:24:53Z</time>
      </trkpt>
      <trkpt lat="42.57187" lon="1.92717">
        <ele>2631.2</ele>
        <time>2013-09-21T08:24:53Z</time>
      </trkpt>
      <trkpt lat="42.5719" lon="1.92756">
        <ele>2657.6</ele>
        <time>2013-09-21T08:24:53Z</time>
      </trkpt>
      <trkpt lat="42.57171" lon="1.92796">
        <ele>2681.4</ele>
        <time>2013-09-21T08:24:53Z</time>
      </trkpt>
      <trkpt lat="42.57168" lon="1.92802">
        <ele>2685</ele>
        <time>2013-09-21T08:24:53Z</time>
      </trkpt>
      <trkpt lat="42.57172" lon="1.92848">
        <ele>2717.9</ele>
        <time>2013-09-21T08:24:53Z</time>
      </trkpt>
      <trkpt lat="42.57161" lon="1.92872">
        <ele>2730.6</ele>
        <time>2013-09-21T08:24:53Z</time>
      </trkpt>
      <trkpt lat="42.57158" lon="1.92877">
        <ele>2733.4</ele>
        <time>2013-09-21T08:24:53Z</time>
      </trkpt>
      <trkpt lat="42.57141" lon="1.92908">
        <ele>2751.5</ele>
        <time>2013-09-21T08:24:53Z</time>
      </trkpt>
      <trkpt lat="42.57128" lon="1.92948">
        <ele>2773.7</ele>
        <time>2013-09-21T08:24:53Z</time>
      </trkpt>
      <trkpt lat="42.57106" lon="1.92984">
        <ele>2794.5</ele>
        <time>2013-09-21T08:24:53Z</time>
      </trkpt>
      <trkpt lat="42.57082" lon="1.93006">
        <ele>2808.3</ele>
        <time>2013-09-21T08:24:53Z</time>
      </trkpt>
      <trkpt lat="42.57062" lon="1.93046">
        <ele>2824.7</ele>
        <time>2013-09-21T08:24:53Z</time>
      </trkpt>
      <trkpt lat="42.57043" lon="1.93097">
        <ele>2844.2</ele>
        <time>2013-09-21T08:24:53Z</time>
      </trkpt>
      <trkpt lat="42.57061" lon="1.93124">
        <ele>2862.8</ele>
        <time>2013-09-21T08:24:53Z</time>
      </trkpt>
      <trkpt lat="42.57045" lon="1.93186">
        <ele>2875.3</ele>
        <time>2013-09-21T08:24:53Z</time>
      </trkpt>
      <trkpt lat="42.5701" lon="1.93207">
        <ele>2874.4</ele>
        <time>2013-09-21T08:24:53Z</time>
      </trkpt>
      <trkpt lat="42.56973" lon="1.93215">
        <ele>2857.3</ele>
        <time>2013-09-21T08:24:53Z</time>
      </trkpt>
      <trkpt lat="42.56979" lon="1.9322">
        <ele>2862.7</ele>
        <time>2013-09-21T08:24:53Z</time>
      </trkpt>
      <trkpt lat="42.56984" lon="1.93219">
        <ele>2865.9</ele>
        <time>2013-09-21T08:24:53Z</time>
      </trkpt>
      <trkpt lat="42.5699" lon="1.93222">
        <ele>2870.8</ele>
        <time>2013-09-21T08:24:53Z</time>
      </trkpt>
      <trkpt lat="42.57026" lon="1.93201">
        <ele>2874.3</ele>
        <time>2013-09-21T08:24:53Z</time>
      </trkpt>
      <trkpt lat="42.57052" lon="1.93157">
        <ele>2872.9</ele>
        <time>2013-09-21T08:24:53Z</time>
      </trkpt>
      <trkpt lat="42.57057" lon="1.93106">
        <ele>2854.4</ele>
        <time>2013-09-21T08:24:53Z</time>
      </trkpt>
      <trkpt lat="42.5704" lon="1.93072">
        <ele>2829.8</ele>
        <time>2013-09-21T08:24:53Z</time>
      </trkpt>
      <trkpt lat="42.57067" lon="1.93036">
        <ele>2820.7</ele>
        <time>2013-09-21T08:24:53Z</time>
      </trkpt>
      <trkpt lat="42.57085" lon="1.93003">
        <ele>2806.8</ele>
        <time>2013-09-21T08:24:53Z</time>
      </trkpt>
      <trkpt lat="42.57103" lon="1.92985">
        <ele>2795.3</ele>
        <time>2013-09-21T08:24:53Z</time>
      </trkpt>
      <trkpt lat="42.57125" lon="1.92945">
        <ele>2772.1</ele>
        <time>2013-09-21T08:24:53Z</time>
      </trkpt>
      <trkpt lat="42.57141" lon="1.92904">
        <ele>2749.1</ele>
        <time>2013-09-21T08:24:53Z</time>
      </trkpt>
      <trkpt lat="42.57159" lon="1.92876">
        <ele>2732.9</ele>
        <time>2013-09-21T08:24:53Z</time>
      </trkpt>
      <trkpt lat="42.57174" lon="1.92833">
        <ele>2709.7</ele>
        <time>2013-09-21T08:24:53Z</time>
      </trkpt>
      <trkpt lat="42.57171" lon="1.92788">
        <ele>2675.5</ele>
        <time>2013-09-21T08:24:53Z</time>
      </trkpt>
      <trkpt lat="42.57176" lon="1.92745">
        <ele>2645.8</ele>
        <time>2013-09-21T08:24:53Z</time>
      </trkpt>
      <trkpt lat="42.57181" lon="1.92696">
        <ele>2616.7</ele>
        <time>2013-09-21T08:24:53Z</time>
      </trkpt>
      <trkpt lat="42.57186" lon="1.92647">
        <ele>2589.2</ele>
        <time>2013-09-21T08:24:53Z</time>
      </trkpt>
      <trkpt lat="42.57193" lon="1.92597">
        <ele>2564.5</ele>
        <time>2013-09-21T08:24:53Z</time>
      </trkpt>
      <trkpt lat="42.5718" lon="1.92551">
        <ele>2547.3</ele>
        <time>2013-09-21T08:24:53Z</time>
      </trkpt>
      <trkpt lat="42.57172" lon="1.92504">
        <ele>2532.8</ele>
        <time>2013-09-21T08:24:53Z</time>
      </trkpt>
      <trkpt lat="42.57163" lon="1.92448">
        <ele>2524.1</ele>
        <time>2013-09-21T08:24:53Z</time>
      </trkpt>
      <trkpt lat="42.57158" lon="1.92402">
        <ele>2515.4</ele>
        <time>2013-09-21T08:24:53Z</time>
      </trkpt>
      <trkpt lat="42.5715" lon="1.92344">
        <ele>2501.5</ele>
        <time>2013-09-21T08:24:53Z</time>
      </trkpt>
      <trkpt lat="42.57159" lon="1.92286">
        <ele>2491.4</ele>
        <time>2013-09-21T08:24:53Z</time>
      </trkpt>
      <trkpt lat="42.57163" lon="1.92282">
        <ele>2491.1</ele>
        <time>2013-09-21T08:24:53Z</time>
      </trkpt>
      <trkpt lat="42.57164" lon="1.9228">
        <ele>2490.8</ele>
        <time>2013-09-21T08:24:53Z</time>
      </trkpt>
      <trkpt lat="42.57166" lon="1.92278">
        <ele>2490.6</ele>
        <time>2013-09-21T08:24:53Z</time>
      </trkpt>
      <trkpt lat="42.57167" lon="1.92275">
        <ele>2490</ele>
        <time>2013-09-21T08:24:53Z</time>
      </trkpt>
      <trkpt lat="42.57167" lon="1.92273">
        <ele>2489.6</ele>
        <time>2013-09-21T08:24:53Z</time>
      </trkpt>
      <trkpt lat="42.57167" lon="1.92271">
        <ele>2489.2</ele>
        <time>2013-09-21T08:24:53Z</time>
      </trkpt>
      <trkpt lat="42.57167" lon="1.92269">
        <ele>2488.8</ele>
        <time>2013-09-21T08:24:53Z</time>
      </trkpt>
      <trkpt lat="42.57167" lon="1.92267">
        <ele>2488.4</ele>
        <time>2013-09-21T08:24:53Z</time>
      </trkpt>
      <trkpt lat="42.57168" lon="1.92265">
        <ele>2487.9</ele>
        <time>2013-09-21T08:24:53Z</time>
      </trkpt>
      <trkpt lat="42.57168" lon="1.92263">
        <ele>2487.4</ele>
        <time>2013-09-21T08:24:53Z</time>
      </trkpt>
      <trkpt lat="42.57168" lon="1.92261">
        <ele>2487</ele>
        <time>2013-09-21T08:24:53Z</time>
      </trkpt>
      <trkpt lat="42.57169" lon="1.92259">
        <ele>2486.4</ele>
        <time>2013-09-21T08:24:53Z</time>
      </trkpt>
      <trkpt lat="42.57169" lon="1.92257">
        <ele>2486</ele>
        <time>2013-09-21T08:24:53Z</time>
      </trkpt>
      <trkpt lat="42.57168" lon="1.92255">
        <ele>2485.8</ele>
        <time>2013-09-21T08:24:53Z</time>
      </trkpt>
      <trkpt lat="42.57168" lon="1.92253">
        <ele>2485.4</ele>
        <time>2013-09-21T08:24:53Z</time>
      </trkpt>
      <trkpt lat="42.57166" lon="1.92252">
        <ele>2485.3</ele>
        <time>2013-09-21T08:24:53Z</time>
      </trkpt>
      <trkpt lat="42.57165" lon="1.9225">
        <ele>2484.9</ele>
        <time>2013-09-21T08:24:53Z</time>
      </trkpt>
      <trkpt lat="42.57164" lon="1.92247">
        <ele>2484.3</ele>
        <time>2013-09-21T08:24:53Z</time>
      </trkpt>
      <trkpt lat="42.57166" lon="1.92245">
        <ele>2484.2</ele>
        <time>2013-09-21T08:24:53Z</time>
      </trkpt>
      <trkpt lat="42.57165" lon="1.92243">
        <ele>2483.8</ele>
        <time>2013-09-21T08:24:53Z</time>
      </trkpt>
      <trkpt lat="42.57166" lon="1.92241">
        <ele>2483.5</ele>
        <time>2013-09-21T08:24:53Z</time>
      </trkpt>
      <trkpt lat="42.57167" lon="1.92239">
        <ele>2483.2</ele>
        <time>2013-09-21T08:24:53Z</time>
      </trkpt>
      <trkpt lat="42.57167" lon="1.9224">
        <ele>2483.4</ele>
        <time>2013-09-21T08:24:53Z</time>
      </trkpt>
    </trkseg>
  </trk>
</gpx>